Location: ?sanag?dem
(16.9522°N, 81.1036°E)
Time: 22:22:52
(UTC+00:00)

Envisat - Pass Details

Date: 17 August 2024
Orbit: 762 x 764 km, 98.3° (Epoch: 16 September)

Event Time Altitude Azimuth Distance (km) Brightness Sun altitude
Rises 22:33:40 0° 346° (NNW) 3,217 6.3 -24.9°
Reaches altitude 10° 22:36:44 10° 326° (NW) 2,290 5.3 -24.2°
Enters shadow 22:36:52 10° 325° (NW) 2,259 5.3 -24.2°
